Notices

What's New in latest Release from April 7th, 2021:

- Updated Glossary, including Speed of Maximum Gust, and Total Hourly Precipitation

- Updated national and regional climate services offices contacts and prices information

- Addition of station inventory lists for 1981-2010, 1971-2000, and 1961-1990 Normals.

If you haven't already, please take our survey and provide feedback about our website: https://eccc.sondage-survey.ca/f/LanguageSelection.aspx?s=442ca660-fcf1-47c0-95a9-59707d6fd709

Hourly Data Report for September 03, 2004

SHERBROOKE A
QUEBEC

45°26'00.000" N
71°41'00.000" W
241.40 m
7028124
71610
YSC

Download Data

Hourly Data (September 2004)
Hourly Data Report for September 3, 2004
TIME
LST
Temp Definition
°C
Dew Point Definition
°C
Rel Hum Definition
%
Precip. Amount Definition
mm

Wind Dir Definition
10's deg

Wind Spd Definition
km/h
Visibility Definition
km
Stn Press Definition
kPa
Hmdx Definition


Wind Chill Definition


Weather Definition


00:00 5.3 4.6 95   11 6 15.0 99.58      
01:00 5.1 4.2 94   10 7 15.0 99.55      
02:00 4.4 3.6 95   8 4 15.0 99.51      
03:00 4.1 3.2 94   12 4 15.0 99.44      
04:00 3.6 2.7 94   34 6 15.0 99.43      
05:00 3.8 2.9 94   10 6 15.0 99.41      
06:00 5.9 5.3 96     0 15.0 99.41      
07:00 9.3 8.0 92   6 4 24.1 99.34     Mainly Clear
08:00 10.9 9.3 90   36 4 24.1 99.30     Mostly Cloudy
09:00 16.0 11.6 75   22 9 24.1 99.25     Mostly Cloudy
10:00 19.3 12.6 65   24 13 24.1 99.18     Mostly Cloudy
11:00 21.2 13.8 63   25 20 24.1 99.14     Mostly Cloudy
12:00 22.5 14.8 62   23 17 24.1 99.08 26   Cloudy
13:00 23.6 15.4 60   25 17 24.1 98.97 28   Cloudy
14:00 24.2 15.3 58   25 19 24.1 98.87 28   Mostly Cloudy
15:00 24.1 14.5 55   25 22 24.1 98.88 28   Cloudy
16:00 23.3 14.6 58   25 17 24.1 98.87 27   Cloudy
17:00 23.0 15.1 61   26 15 15.0 98.78 27    
18:00 21.9 15.0 65   27 9 15.0 98.81 26    
19:00 20.6 15.0 70   22 6 15.0 98.80 25    
20:00 20.5 15.2 72   21 7 15.0 98.82 25    
21:00 20.5 15.5 73   22 7 15.0 98.79 25    
22:00 20.3 15.6 74   22 9 15.0 98.76 25    
23:00 20.6 15.2 71   22 11 15.0 98.71 25    

Notes on Data Quality.

Legend

  • E = Estimated
  • M = Missing
  • NA = Not Available*
  • [empty] = Indicates an unobserved value
Date modified: